Location: Las Navas
(40.6024°N, 4.3345°W)
Time: 01:34:49
(UTC+00:00)

Cosmos 2341 Rocket - Pass Details

Date: 03 April 2020
Orbit: 968 x 1004 km, 82.9° (Epoch: 27 May)

Event Time Altitude Azimuth Distance (km) Brightness Sun altitude
Rises 21:24:17 0° 351° (N) 3,728 7.7 -28.6°
Reaches altitude 10° 21:26:48 10° 351° (N) 2,779 6.9 -28.9°
Maximum altitude 21:33:12 82° 265° (W) 1,018 4.0 -29.9°
Enters shadow 21:33:36 78° 214° (SW) 1,030 3.9 -29.9°
